Weather in Rennes

France     48°06′30″N   1°41′03″W
temp.,
°C
wind,
m/s
gust,
m/s
humid.,
%
clouds,
%
prec.,
mm/h
press.,
hPa
HPBL,
m
19 january, wed
wed1901:00+2n22946 0.0 103214
04:00+2nw22944 0.0 103110
07:00+3nw2495100 0.0 1030102
10:00+5w248777 0.0 1031147
13:00+7wsw2377100 0.0 1030393
16:00+9w3475100 0.0 1029517
19:00+6wsw2393100 0.1 102996
22:00+7wnw259690 0.3 1030135
20 january, thu
thu2001:00+7n51091100 0.4 1032487
04:00+4n411905 0.0 1033278
07:00+2n39945 0.0 1034189
10:00+3n498937 0.0 1035256
13:00+7nne576887 0.0 10361252
16:00+7ne58655 0.0 10351236
19:00+2nne411825 0.0 1036270
22:00+1nne38875 0.0 1038170
21 january, fri
fri2101:000nne37865 0.0 1038126
04:000nne37905 0.0 1038111
07:00−1nne35915 0.0 103880
10:00+1nne268219 0.0 1039170
13:00+6ne456210 0.0 10391026
16:00+6nne44647 0.0 1038977
19:00+1n36855 0.0 103992
22:00+1nne23880 0.0 103931
22 january, sat
sat2201:000nne22880 0.0 103922
04:00−1nne22901 0.0 103914
07:000nne22930 0.0 103926
10:00+1nne12890 0.0 103981
13:00+7nne23720 0.0 1039433
16:00+8nne34710 0.0 1037558
19:00+3nne33910 0.0 103738
22:00+2nne33930 0.0 103732
23 january, sun
sun2301:00+1nne22940 0.0 103723
04:00+1nne33930 0.0 103632
07:00+1nne33931 0.0 103546
10:00+2nne25920 0.0 1036125
13:00+7ne35760 0.0 1034490
16:00+8ene45732 0.0 1034663
19:00+2ene379337 0.0 1035156
22:00+4ene377660 0.0 1035236